Time,TemperatureF,DewpointF,PressureIn,WindDirection,WindDirectionDegrees,WindSpeedMPH,WindSpeedGustMPH,Humidity,HourlyPrecipIn,Conditions,Clouds,dailyrainin,SoftwareType,DateUTC
2013-10-16 00:00:00,71.5,71.0,30.02,NNW,337,2.6,4.0,100,0.00,,,0.00,Rainwise IP-100,2013-10-16 04:00:00,
2013-10-16 00:01:00,71.5,71.0,30.02,North,350,2.3,4.0,100,0.00,,,0.00,Rainwise IP-100,2013-10-16 04:01:00,
2013-10-16 00:06:00,71.5,71.0,30.02,NW,307,1.2,4.0,100,0.00,,,0.00,Rainwise IP-100,2013-10-16 04:06:00,
2013-10-16 00:11:00,71.4,71.0,30.01,NNW,337,1.2,4.0,100,0.00,,,0.00,Rainwise IP-100,2013-10-16 04:11:00,
2013-10-16 00:16:00,71.3,71.0,30.02,NNW,334,2.6,3.0,100,0.00,,,0.00,Rainwise IP-100,2013-10-16 04:16:00,
2013-10-16 00:21:00,71.2,71.0,30.02,NNW,327,0.0,3.0,100,0.00,,,0.00,Rainwise IP-100,2013-10-16 04:21:00,
2013-10-16 00:26:00,71.1,71.0,30.02,NNW,345,0.0,2.0,100,0.00,,,0.00,Rainwise IP-100,2013-10-16 04:26:00,
2013-10-16 00:31:00,70.9,71.0,30.01,NNW,345,2.1,2.1,100,0.00,,,0.00,Rainwise IP-100,2013-10-16 04:31:00,
2013-10-16 00:36:00,70.8,70.0,30.01,North,357,1.2,4.0,100,0.00,,,0.00,Rainwise IP-100,2013-10-16 04:36:00,
2013-10-16 00:41:00,70.8,70.0,30.02,NNW,330,2.1,3.0,100,0.00,,,0.00,Rainwise IP-100,2013-10-16 04:41:00,
2013-10-16 00:46:00,70.7,70.0,30.02,NNW,338,3.7,5.0,100,0.00,,,0.00,Rainwise IP-100,2013-10-16 04:46:00,
2013-10-16 00:51:00,70.7,70.0,30.01,NNW,329,1.2,4.0,100,0.00,,,0.00,Rainwise IP-100,2013-10-16 04:51:00,
2013-10-16 00:56:00,70.7,70.0,30.01,NW,318,3.0,4.0,100,0.00,,,0.00,Rainwise IP-100,2013-10-16 04:56:00,
2013-10-16 01:01:00,70.6,70.0,30.01,NW,325,3.5,5.0,100,0.00,,,0.00,Rainwise IP-100,2013-10-16 05:01:00,
2013-10-16 01:06:00,70.6,70.0,30.01,NW,320,3.7,4.0,100,0.00,,,0.00,Rainwise IP-100,2013-10-16 05:06:00,
2013-10-16 01:11:00,70.7,70.0,30.01,NNW,335,3.3,4.0,100,0.00,,,0.00,Rainwise IP-100,2013-10-16 05:11:00,
2013-10-16 01:16:00,70.6,70.0,30.01,NW,310,3.7,3.7,100,0.00,,,0.00,Rainwise IP-100,2013-10-16 05:16:00,
2013-10-16 01:21:00,70.6,70.0,30.01,NW,313,1.9,4.0,100,0.00,,,0.00,Rainwise IP-100,2013-10-16 05:21:00,
2013-10-16 01:26:00,70.6,70.0,30.01,WNW,296,2.3,3.0,100,0.00,,,0.00,Rainwise IP-100,2013-10-16 05:26:00,
2013-10-16 01:31:00,70.5,70.0,30.01,NNW,338,2.6,4.0,100,0.00,,,0.00,Rainwise IP-100,2013-10-16 05:31:00,
2013-10-16 01:36:00,70.6,70.0,30.00,NW,310,3.0,6.0,100,0.00,,,0.00,Rainwise IP-100,2013-10-16 05:36:00,
2013-10-16 01:41:00,70.6,70.0,30.01,NW,317,4.0,5.0,100,0.00,,,0.00,Rainwise IP-100,2013-10-16 05:41:00,
2013-10-16 01:46:00,70.6,70.0,30.01,WNW,301,4.2,5.0,100,0.00,,,0.00,Rainwise IP-100,2013-10-16 05:46:00,
2013-10-16 01:51:00,70.5,70.0,30.01,NW,306,2.6,5.0,100,0.00,,,0.00,Rainwise IP-100,2013-10-16 05:51:00,
2013-10-16 01:56:00,70.5,70.0,30.01,North,349,2.6,4.0,100,0.00,,,0.00,Rainwise IP-100,2013-10-16 05:56:00,
2013-10-16 02:01:00,70.5,70.0,30.01,NNE,13,1.4,4.0,100,0.00,,,0.00,Rainwise IP-100,2013-10-16 06:01:00,
2013-10-16 02:06:00,70.4,70.0,30.01,NNW,334,4.7,4.7,100,0.00,,,0.00,Rainwise IP-100,2013-10-16 06:06:00,
2013-10-16 02:11:00,70.4,70.0,30.01,North,3,1.2,5.0,100,0.00,,,0.00,Rainwise IP-100,2013-10-16 06:11:00,
2013-10-16 02:16:00,70.3,70.0,30.00,NW,322,1.9,5.0,100,0.00,,,0.00,Rainwise IP-100,2013-10-16 06:16:00,
2013-10-16 02:21:00,70.3,70.0,30.01,NNW,330,2.6,4.0,100,0.00,,,0.00,Rainwise IP-100,2013-10-16 06:21:00,
2013-10-16 02:26:00,70.3,70.0,30.01,NNW,331,2.8,4.0,100,0.00,,,0.00,Rainwise IP-100,2013-10-16 06:26:00,
2013-10-16 02:31:00,70.2,70.0,30.01,NNW,332,3.0,4.0,100,0.00,,,0.00,Rainwise IP-100,2013-10-16 06:31:00,
2013-10-16 02:36:00,70.2,70.0,30.01,NNW,342,4.0,5.0,100,0.00,,,0.00,Rainwise IP-100,2013-10-16 06:36:00,
2013-10-16 02:41:00,70.2,70.0,30.01,WNW,283,2.8,6.0,100,0.00,,,0.00,Rainwise IP-100,2013-10-16 06:41:00,
2013-10-16 02:46:00,70.1,70.0,30.00,NW,326,2.8,5.0,100,0.00,,,0.00,Rainwise IP-100,2013-10-16 06:46:00,
2013-10-16 02:51:00,70.1,70.0,30.01,WNW,290,0.0,4.0,100,0.00,,,0.00,Rainwise IP-100,2013-10-16 06:51:00,
2013-10-16 02:56:00,70.1,70.0,30.01,NNW,343,3.0,3.0,100,0.00,,,0.00,Rainwise IP-100,2013-10-16 06:56:00,
2013-10-16 03:01:00,70.0,70.0,30.00,WNW,284,4.0,5.0,100,0.00,,,0.00,Rainwise IP-100,2013-10-16 07:01:00,
2013-10-16 03:06:00,70.0,70.0,30.01,NW,322,3.0,4.0,100,0.00,,,0.00,Rainwise IP-100,2013-10-16 07:06:00,
2013-10-16 03:11:00,70.0,70.0,30.01,NW,324,2.6,3.0,100,0.00,,,0.00,Rainwise IP-100,2013-10-16 07:11:00,
2013-10-16 03:16:00,69.9,70.0,30.00,North,351,1.9,4.0,100,0.00,,,0.00,Rainwise IP-100,2013-10-16 07:16:00,
2013-10-16 03:21:00,69.9,70.0,30.00,NNW,335,1.4,3.0,100,0.00,,,0.00,Rainwise IP-100,2013-10-16 07:21:00,
2013-10-16 03:26:00,69.9,70.0,30.01,WNW,298,2.8,3.0,100,0.00,,,0.00,Rainwise IP-100,2013-10-16 07:26:00,
2013-10-16 03:31:00,69.8,69.0,30.00,WNW,296,1.6,4.0,100,0.00,,,0.00,Rainwise IP-100,2013-10-16 07:31:00,
2013-10-16 03:36:00,69.8,69.0,30.00,NW,305,1.4,3.0,100,0.00,,,0.00,Rainwise IP-100,2013-10-16 07:36:00,
2013-10-16 03:41:00,69.8,69.0,30.01,NNW,341,1.2,4.0,100,0.00,,,0.00,Rainwise IP-100,2013-10-16 07:41:00,
2013-10-16 03:46:00,69.8,69.0,30.00,WNW,295,2.1,2.1,100,0.00,,,0.00,Rainwise IP-100,2013-10-16 07:46:00,
2013-10-16 03:51:00,69.8,69.0,30.00,WSW,247,2.3,4.0,100,0.00,,,0.00,Rainwise IP-100,2013-10-16 07:51:00,
2013-10-16 03:56:00,69.8,69.0,30.00,WNW,295,1.2,3.0,100,0.00,,,0.00,Rainwise IP-100,2013-10-16 07:56:00,
2013-10-16 04:01:00,69.8,69.0,30.00,West,277,3.3,3.3,100,0.00,,,0.00,Rainwise IP-100,2013-10-16 08:01:00,
2013-10-16 04:06:00,69.7,69.0,30.00,NW,323,1.9,4.0,100,0.00,,,0.00,Rainwise IP-100,2013-10-16 08:06:00,
2013-10-16 04:11:00,69.6,69.0,30.00,West,263,0.0,4.0,100,0.00,,,0.00,Rainwise IP-100,2013-10-16 08:11:00,
2013-10-16 04:16:00,69.6,69.0,30.00,NNW,342,2.1,4.0,100,0.00,,,0.00,Rainwise IP-100,2013-10-16 08:16:00,
2013-10-16 04:21:00,69.6,69.0,30.00,WNW,303,1.9,3.0,100,0.00,,,0.00,Rainwise IP-100,2013-10-16 08:21:00,
2013-10-16 04:26:00,69.5,69.0,30.00,NNW,327,2.8,4.0,100,0.00,,,0.00,Rainwise IP-100,2013-10-16 08:26:00,
2013-10-16 04:31:00,69.5,69.0,29.99,NW,319,1.2,3.0,100,0.00,,,0.00,Rainwise IP-100,2013-10-16 08:31:00,
2013-10-16 04:36:00,69.5,69.0,30.00,NW,307,2.3,3.0,100,0.00,,,0.00,Rainwise IP-100,2013-10-16 08:36:00,
2013-10-16 04:41:00,69.5,69.0,30.00,NW,307,0.0,2.0,100,0.00,,,0.00,Rainwise IP-100,2013-10-16 08:41:00,
2013-10-16 04:46:00,69.5,69.0,30.00,North,352,1.2,3.0,100,0.00,,,0.00,Rainwise IP-100,2013-10-16 08:46:00,
2013-10-16 04:51:00,69.6,69.0,30.00,North,11,3.7,3.7,100,0.00,,,0.00,Rainwise IP-100,2013-10-16 08:51:00,
2013-10-16 04:56:00,69.6,69.0,30.00,NW,312,1.2,4.0,100,0.00,,,0.00,Rainwise IP-100,2013-10-16 08:56:00,
2013-10-16 05:01:00,69.6,69.0,30.00,NW,306,1.9,4.0,100,0.00,,,0.00,Rainwise IP-100,2013-10-16 09:01:00,
2013-10-16 05:06:00,69.5,69.0,29.99,NNW,338,1.4,3.0,100,0.00,,,0.00,Rainwise IP-100,2013-10-16 09:06:00,
2013-10-16 05:11:00,69.6,69.0,29.99,NW,304,1.6,3.0,100,0.00,,,0.00,Rainwise IP-100,2013-10-16 09:11:00,
2013-10-16 05:16:00,69.6,69.0,30.00,WNW,303,1.4,3.0,100,0.00,,,0.00,Rainwise IP-100,2013-10-16 09:16:00,
2013-10-16 05:21:00,69.6,69.0,30.00,WNW,303,1.4,2.0,100,0.00,,,0.00,Rainwise IP-100,2013-10-16 09:21:00,
2013-10-16 05:26:00,69.6,69.0,30.00,NW,313,0.0,3.0,100,0.00,,,0.00,Rainwise IP-100,2013-10-16 09:26:00,
2013-10-16 05:31:00,69.6,69.0,30.00,NW,313,0.0,1.0,100,0.00,,,0.00,Rainwise IP-100,2013-10-16 09:31:00,
2013-10-16 05:36:00,69.6,69.0,30.01,NW,313,1.4,1.4,100,0.00,,,0.00,Rainwise IP-100,2013-10-16 09:36:00,
2013-10-16 05:41:00,69.6,69.0,30.00,NW,309,0.0,2.0,100,0.00,,,0.00,Rainwise IP-100,2013-10-16 09:41:00,
2013-10-16 05:46:00,69.6,69.0,30.00,NW,323,1.9,2.0,100,0.00,,,0.00,Rainwise IP-100,2013-10-16 09:46:00,
2013-10-16 05:51:00,69.6,69.0,30.00,NNW,334,0.0,2.0,100,0.00,,,0.00,Rainwise IP-100,2013-10-16 09:51:00,
2013-10-16 05:56:00,69.6,69.0,30.01,NNW,334,0.0,1.0,100,0.00,,,0.00,Rainwise IP-100,2013-10-16 09:56:00,
2013-10-16 06:01:00,69.6,69.0,30.01,NNW,334,0.0,1.0,100,0.00,,,0.00,Rainwise IP-100,2013-10-16 10:01:00,
2013-10-16 06:06:00,69.6,69.0,30.01,NNW,341,1.2,2.0,100,0.00,,,0.00,Rainwise IP-100,2013-10-16 10:06:00,
2013-10-16 06:11:00,69.7,69.0,30.01,NW,326,0.0,2.0,100,0.00,,,0.00,Rainwise IP-100,2013-10-16 10:11:00,
2013-10-16 06:16:00,69.6,69.0,30.01,NW,326,1.2,1.2,100,0.00,,,0.00,Rainwise IP-100,2013-10-16 10:16:00,
2013-10-16 06:21:00,69.7,69.0,30.01,NNW,341,0.0,3.0,100,0.00,,,0.00,Rainwise IP-100,2013-10-16 10:21:00,
2013-10-16 06:26:00,69.7,69.0,30.01,NW,322,0.0,2.0,100,0.00,,,0.00,Rainwise IP-100,2013-10-16 10:26:00,
2013-10-16 06:31:00,69.8,69.0,30.01,NW,322,1.4,2.0,100,0.00,,,0.00,Rainwise IP-100,2013-10-16 10:31:00,
2013-10-16 06:36:00,69.8,69.0,30.01,WNW,289,0.0,2.0,100,0.00,,,0.00,Rainwise IP-100,2013-10-16 10:36:00,
2013-10-16 06:41:00,69.8,69.0,30.01,WNW,289,0.0,0.0,100,0.00,,,0.00,Rainwise IP-100,2013-10-16 10:41:00,
2013-10-16 06:46:00,69.8,69.0,30.01,WNW,289,1.4,1.4,100,0.00,,,0.00,Rainwise IP-100,2013-10-16 10:46:00,
2013-10-16 06:51:00,69.8,69.0,30.02,WNW,289,1.2,1.2,100,0.00,,,0.00,Rainwise IP-100,2013-10-16 10:51:00,
2013-10-16 06:56:00,69.8,69.0,30.02,West,269,0.0,1.0,100,0.00,,,0.00,Rainwise IP-100,2013-10-16 10:56:00,
2013-10-16 07:01:00,69.8,69.0,30.02,West,269,0.0,0.0,100,0.00,,,0.00,Rainwise IP-100,2013-10-16 11:01:00,
2013-10-16 07:06:00,69.8,69.0,30.02,West,269,0.0,1.0,100,0.00,,,0.00,Rainwise IP-100,2013-10-16 11:06:00,
2013-10-16 07:11:00,69.8,69.0,30.02,West,262,1.9,2.0,100,0.00,,,0.00,Rainwise IP-100,2013-10-16 11:11:00,
2013-10-16 07:16:00,69.8,69.0,30.02,West,262,1.9,1.9,100,0.00,,,0.00,Rainwise IP-100,2013-10-16 11:16:00,
2013-10-16 07:48:00,69.8,69.0,30.02,West,262,1.9,1.9,100,0.00,,,0.00,Rainwise IP-100,2013-10-16 11:48:00,
2013-10-16 07:53:00,68.8,68.0,30.02,WSW,256,1.2,1.2,100,0.00,,,0.00,Rainwise IP-100,2013-10-16 11:53:00,
2013-10-16 08:30:00,69.4,69.0,30.03,West,262,4.0,0.0,100,0.00,,,0.00,Rainwise IP-100,2013-10-16 12:30:00,
2013-10-16 08:35:00,69.4,69.0,30.03,West,262,4.0,4.0,100,0.00,,,0.00,Rainwise IP-100,2013-10-16 12:35:00,
2013-10-16 08:40:00,69.6,69.0,30.04,WSW,246,4.4,4.4,100,0.00,,,0.00,Rainwise IP-100,2013-10-16 12:40:00,
2013-10-16 08:45:00,69.7,69.0,30.04,WSW,248,4.0,4.0,100,0.00,,,0.00,Rainwise IP-100,2013-10-16 12:45:00,
2013-10-16 08:50:00,69.8,69.0,30.04,WNW,282,4.7,5.0,100,0.00,,,0.00,Rainwise IP-100,2013-10-16 12:50:00,
2013-10-16 08:55:00,70.0,70.0,30.04,West,276,2.1,2.1,100,0.06,,,0.01,Rainwise IP-100,2013-10-16 12:55:00,
2013-10-16 09:00:00,70.0,70.0,30.03,West,260,5.4,5.4,100,0.06,,,0.01,Rainwise IP-100,2013-10-16 13:00:00,
2013-10-16 09:05:00,70.0,70.0,30.03,West,260,5.4,5.4,100,0.00,,,0.01,Rainwise IP-100,2013-10-16 13:05:00,
2013-10-16 10:00:00,74.4,73.0,30.04,ENE,63,0.0,0.0,96,0.00,,,0.01,Rainwise IP-100,2013-10-16 14:00:00,
2013-10-16 10:05:00,74.4,73.0,30.04,ENE,63,0.0,0.0,96,0.00,,,0.01,Rainwise IP-100,2013-10-16 14:05:00,
2013-10-16 13:54:00,86.9,70.0,29.99,NNE,12,1.2,0.0,57,0.00,,,0.01,Rainwise IP-100,2013-10-16 17:54:00,
2013-10-16 13:59:00,86.9,70.0,29.99,NNE,12,0.0,1.0,57,0.00,,,0.01,Rainwise IP-100,2013-10-16 17:59:00,
2013-10-16 14:50:00,85.8,72.0,29.97,NE,54,4.0,0.0,64,0.00,,,0.01,Rainwise IP-100,2013-10-16 18:50:00,
2013-10-16 14:51:00,85.8,72.0,29.97,NE,54,4.0,4.0,64,0.00,,,0.01,Rainwise IP-100,2013-10-16 18:51:00,
2013-10-16 14:56:00,85.8,72.0,29.97,NE,54,4.0,0.0,64,0.00,,,0.01,Rainwise IP-100,2013-10-16 18:56:00,
2013-10-16 15:17:00,83.9,71.0,29.97,NNE,14,3.0,0.0,65,0.00,,,0.01,Rainwise IP-100,2013-10-16 19:17:00,
2013-10-16 15:22:00,83.9,71.0,29.97,NNE,14,3.0,3.0,65,0.00,,,0.01,Rainwise IP-100,2013-10-16 19:22:00,
2013-10-16 15:28:00,83.7,71.0,29.97,North,351,4.9,0.0,66,0.00,,,0.01,Rainwise IP-100,2013-10-16 19:28:00,
2013-10-16 15:33:00,83.6,71.0,29.97,East,81,4.2,4.2,66,0.00,,,0.01,Rainwise IP-100,2013-10-16 19:33:00,
2013-10-16 15:38:00,83.4,71.0,29.96,NW,307,2.6,4.0,66,0.06,,,0.02,Rainwise IP-100,2013-10-16 19:38:00,
2013-10-16 15:43:00,83.9,71.0,29.96,NNW,344,2.3,4.0,66,0.06,,,0.02,Rainwise IP-100,2013-10-16 19:43:00,
2013-10-16 15:48:00,84.8,71.0,29.96,ENE,67,1.2,2.0,64,0.00,,,0.02,Rainwise IP-100,2013-10-16 19:48:00,
2013-10-16 15:53:00,84.0,71.0,29.97,ENE,68,0.0,4.0,65,0.00,,,0.02,Rainwise IP-100,2013-10-16 19:53:00,
2013-10-16 15:58:00,83.2,71.0,29.96,NE,42,0.0,4.0,67,0.00,,,0.02,Rainwise IP-100,2013-10-16 19:58:00,
2013-10-16 16:03:00,83.2,71.0,29.96,NE,46,3.3,3.3,67,0.00,,,0.02,Rainwise IP-100,2013-10-16 20:03:00,
2013-10-16 16:08:00,82.3,71.0,29.97,NE,51,3.7,3.7,70,0.00,,,0.02,Rainwise IP-100,2013-10-16 20:08:00,
2013-10-16 16:13:00,81.6,71.0,29.97,East,83,3.3,3.3,72,0.06,,,0.03,Rainwise IP-100,2013-10-16 20:13:00,
2013-10-16 16:18:00,81.6,71.0,29.97,East,83,3.3,3.3,72,0.06,,,0.03,Rainwise IP-100,2013-10-16 20:18:00,
2013-10-16 16:51:00,80.7,72.0,29.97,NNE,30,1.4,0.0,75,0.00,,,0.03,Rainwise IP-100,2013-10-16 20:51:00,
2013-10-16 16:56:00,80.7,72.0,29.97,NNE,30,1.4,1.4,75,0.00,,,0.03,Rainwise IP-100,2013-10-16 20:56:00,
2013-10-16 17:03:00,80.5,72.0,29.98,ENE,72,1.9,0.0,76,0.00,,,0.03,Rainwise IP-100,2013-10-16 21:03:00,
2013-10-16 17:08:00,80.4,72.0,29.97,NE,43,0.0,2.0,76,0.00,,,0.03,Rainwise IP-100,2013-10-16 21:08:00,
2013-10-16 17:13:00,80.2,72.0,29.97,NE,48,1.2,1.2,76,0.06,,,0.04,Rainwise IP-100,2013-10-16 21:13:00,
2013-10-16 17:18:00,80.2,72.0,29.97,NE,48,1.2,1.2,76,0.06,,,0.04,Rainwise IP-100,2013-10-16 21:18:00,
2013-10-16 17:23:00,79.9,72.0,29.98,North,7,0.0,3.0,78,0.00,,,0.04,Rainwise IP-100,2013-10-16 21:23:00,
2013-10-16 17:28:00,79.9,72.0,29.98,NE,34,2.8,3.0,78,0.00,,,0.04,Rainwise IP-100,2013-10-16 21:28:00,
2013-10-16 17:33:00,80.1,72.0,29.98,East,84,2.8,3.0,78,0.00,,,0.04,Rainwise IP-100,2013-10-16 21:33:00,
2013-10-16 17:38:00,80.4,72.0,29.97,NE,53,1.4,1.4,77,0.00,,,0.04,Rainwise IP-100,2013-10-16 21:38:00,
2013-10-16 17:43:00,80.3,72.0,29.98,ENE,60,2.3,2.3,76,0.00,,,0.04,Rainwise IP-100,2013-10-16 21:43:00,
2013-10-16 17:48:00,80.0,72.0,29.98,WSW,239,1.4,2.0,77,0.00,,,0.04,Rainwise IP-100,2013-10-16 21:48:00,
2013-10-16 17:53:00,79.6,72.0,29.98,NE,54,3.3,3.3,77,0.00,,,0.04,Rainwise IP-100,2013-10-16 21:53:00,
2013-10-16 17:58:00,79.3,72.0,29.98,NE,35,5.1,5.1,78,0.00,,,0.04,Rainwise IP-100,2013-10-16 21:58:00,
2013-10-16 18:03:00,79.3,72.0,29.98,NE,35,5.1,5.1,78,0.00,,,0.04,Rainwise IP-100,2013-10-16 22:03:00,
2013-10-16 18:08:00,79.3,72.0,29.98,NE,35,5.1,5.1,78,0.00,,,0.04,Rainwise IP-100,2013-10-16 22:08:00,
2013-10-16 18:13:00,78.9,72.0,29.98,ENE,60,4.9,4.9,79,0.00,,,0.04,Rainwise IP-100,2013-10-16 22:13:00,
2013-10-16 18:18:00,78.8,72.0,29.98,NE,50,2.1,4.0,80,0.00,,,0.04,Rainwise IP-100,2013-10-16 22:18:00,
2013-10-16 18:23:00,78.7,72.0,29.98,NE,54,2.1,5.0,80,0.00,,,0.04,Rainwise IP-100,2013-10-16 22:23:00,
2013-10-16 18:28:00,78.4,72.0,29.98,NE,48,4.2,5.0,81,0.00,,,0.04,Rainwise IP-100,2013-10-16 22:28:00,
2013-10-16 18:33:00,77.9,72.0,29.98,NNE,24,4.0,4.0,81,0.00,,,0.04,Rainwise IP-100,2013-10-16 22:33:00,
2013-10-16 18:38:00,77.4,71.0,29.98,NE,52,2.1,9.0,82,0.00,,,0.04,Rainwise IP-100,2013-10-16 22:38:00,
2013-10-16 18:43:00,77.0,71.0,29.99,NE,38,3.3,5.0,83,0.00,,,0.04,Rainwise IP-100,2013-10-16 22:43:00,
2013-10-16 18:48:00,76.6,71.0,29.99,East,89,1.2,4.0,84,0.00,,,0.04,Rainwise IP-100,2013-10-16 22:48:00,
2013-10-16 18:53:00,76.3,71.0,29.99,ENE,73,3.0,4.0,85,0.00,,,0.04,Rainwise IP-100,2013-10-16 22:53:00,
2013-10-16 18:58:00,76.1,71.0,29.99,ENE,78,2.6,3.0,86,0.00,,,0.04,Rainwise IP-100,2013-10-16 22:58:00,
2013-10-16 19:03:00,76.0,71.0,29.99,NE,43,1.4,3.0,87,0.00,,,0.04,Rainwise IP-100,2013-10-16 23:03:00,
2013-10-16 19:08:00,75.6,71.0,29.99,NE,51,1.9,4.0,87,0.00,,,0.04,Rainwise IP-100,2013-10-16 23:08:00,
2013-10-16 19:14:00,75.3,71.0,29.99,NE,54,1.6,4.0,88,0.00,,,0.04,Rainwise IP-100,2013-10-16 23:14:00,
2013-10-16 19:19:00,75.3,71.0,29.99,NE,39,1.4,3.0,89,0.00,,,0.04,Rainwise IP-100,2013-10-16 23:19:00,
2013-10-16 19:24:00,75.1,71.0,30.00,NE,41,2.3,3.0,89,0.00,,,0.04,Rainwise IP-100,2013-10-16 23:24:00,
2013-10-16 19:29:00,75.0,72.0,29.99,NE,54,2.1,4.0,90,0.00,,,0.04,Rainwise IP-100,2013-10-16 23:29:00,
2013-10-16 19:34:00,74.9,72.0,29.99,NE,43,1.4,4.0,90,0.00,,,0.04,Rainwise IP-100,2013-10-16 23:34:00,
2013-10-16 19:39:00,74.7,71.0,30.00,ENE,59,1.4,4.0,90,0.00,,,0.04,Rainwise IP-100,2013-10-16 23:39:00,
2013-10-16 19:44:00,74.6,72.0,29.99,NE,54,1.4,3.0,91,0.00,,,0.04,Rainwise IP-100,2013-10-16 23:44:00,
2013-10-16 19:49:00,74.4,71.0,29.99,NE,54,1.4,1.4,91,0.00,,,0.04,Rainwise IP-100,2013-10-16 23:49:00,
2013-10-16 19:54:00,74.4,71.0,29.99,NE,54,1.4,1.4,91,0.00,,,0.04,Rainwise IP-100,2013-10-16 23:54:00,
2013-10-16 19:59:00,74.2,72.0,30.00,ENE,60,1.4,5.0,92,0.00,,,0.04,Rainwise IP-100,2013-10-16 23:59:00,
2013-10-16 20:04:00,74.2,72.0,30.00,ENE,60,1.4,4.0,92,0.00,,,0.04,Rainwise IP-100,2013-10-17 00:04:00,
2013-10-16 20:09:00,74.1,72.0,30.00,NE,35,0.0,5.0,93,0.00,,,0.04,Rainwise IP-100,2013-10-17 00:09:00,
2013-10-16 20:14:00,74.1,72.0,30.01,ENE,68,2.3,3.0,93,0.00,,,0.04,Rainwise IP-100,2013-10-17 00:14:00,
2013-10-16 20:19:00,74.1,72.0,30.01,NE,50,1.2,2.0,93,0.00,,,0.04,Rainwise IP-100,2013-10-17 00:19:00,
2013-10-16 20:24:00,73.8,71.0,30.01,ENE,72,1.2,3.0,93,0.00,,,0.04,Rainwise IP-100,2013-10-17 00:24:00,
2013-10-16 20:29:00,73.6,71.0,30.01,ENE,72,1.6,1.6,93,0.00,,,0.04,Rainwise IP-100,2013-10-17 00:29:00,
2013-10-16 20:34:00,73.5,71.0,30.01,ENE,68,1.4,3.0,93,0.00,,,0.04,Rainwise IP-100,2013-10-17 00:34:00,
2013-10-16 20:39:00,73.4,71.0,30.01,NE,54,1.6,4.0,94,0.00,,,0.04,Rainwise IP-100,2013-10-17 00:39:00,
2013-10-16 20:44:00,73.4,71.0,30.01,NE,51,1.6,6.0,94,0.00,,,0.04,Rainwise IP-100,2013-10-17 00:44:00,
2013-10-16 20:49:00,73.3,71.0,30.02,NE,56,0.0,2.0,94,0.00,,,0.04,Rainwise IP-100,2013-10-17 00:49:00,
2013-10-16 20:54:00,73.2,71.0,30.02,NE,43,1.6,2.0,94,0.00,,,0.04,Rainwise IP-100,2013-10-17 00:54:00,
2013-10-16 20:59:00,73.2,71.0,30.02,NE,43,0.0,0.0,94,0.00,,,0.04,Rainwise IP-100,2013-10-17 00:59:00,
2013-10-16 21:04:00,73.2,72.0,30.02,ENE,65,0.0,0.0,95,0.00,,,0.04,Rainwise IP-100,2013-10-17 01:04:00,
2013-10-16 21:09:00,73.2,72.0,30.02,ENE,68,0.0,0.0,95,0.00,,,0.04,Rainwise IP-100,2013-10-17 01:09:00,
2013-10-16 21:14:00,73.2,72.0,30.02,ENE,68,0.0,0.0,95,0.00,,,0.04,Rainwise IP-100,2013-10-17 01:14:00,
2013-10-16 21:35:00,72.5,71.0,30.03,North,356,0.0,0.0,96,0.00,,,0.04,Rainwise IP-100,2013-10-17 01:35:00,
2013-10-16 21:40:00,72.5,71.0,30.04,North,356,0.0,0.0,96,0.00,,,0.04,Rainwise IP-100,2013-10-17 01:40:00,
2013-10-16 21:45:00,72.5,72.0,30.03,ENE,59,0.0,0.0,97,0.00,,,0.04,Rainwise IP-100,2013-10-17 01:45:00,
2013-10-16 21:50:00,72.4,71.0,30.03,ENE,59,0.0,0.0,97,0.00,,,0.04,Rainwise IP-100,2013-10-17 01:50:00,
2013-10-16 21:55:00,72.2,71.0,30.03,ENE,71,0.0,3.0,97,0.00,,,0.04,Rainwise IP-100,2013-10-17 01:55:00,
2013-10-16 22:00:00,72.2,71.0,30.03,North,354,0.0,1.0,97,0.00,,,0.04,Rainwise IP-100,2013-10-17 02:00:00,
2013-10-16 22:05:00,72.2,71.0,30.04,NNE,17,0.0,1.0,97,0.00,,,0.04,Rainwise IP-100,2013-10-17 02:05:00,
2013-10-16 22:10:00,72.1,71.0,30.03,East,91,0.0,0.0,97,0.00,,,0.04,Rainwise IP-100,2013-10-17 02:10:00,
2013-10-16 22:15:00,72.2,71.0,30.03,East,91,0.0,2.0,97,0.00,,,0.04,Rainwise IP-100,2013-10-17 02:15:00,
2013-10-16 22:20:00,72.1,71.0,30.03,North,360,0.0,1.0,97,0.00,,,0.04,Rainwise IP-100,2013-10-17 02:20:00,
2013-10-16 22:25:00,72.0,71.0,30.04,North,358,0.0,2.0,97,0.00,,,0.04,Rainwise IP-100,2013-10-17 02:25:00,
2013-10-16 22:30:00,71.8,71.0,30.03,North,354,0.0,2.0,97,0.00,,,0.04,Rainwise IP-100,2013-10-17 02:30:00,
2013-10-16 22:35:00,71.8,71.0,30.03,North,354,0.0,0.0,98,0.00,,,0.04,Rainwise IP-100,2013-10-17 02:35:00,
2013-10-16 22:40:00,71.7,71.0,30.04,North,354,0.0,0.0,98,0.00,,,0.04,Rainwise IP-100,2013-10-17 02:40:00,
2013-10-16 22:45:00,71.7,71.0,30.04,North,354,0.0,0.0,98,0.00,,,0.04,Rainwise IP-100,2013-10-17 02:45:00,
2013-10-16 22:50:00,71.6,71.0,30.03,North,354,0.0,1.0,98,0.00,,,0.04,Rainwise IP-100,2013-10-17 02:50:00,
2013-10-16 22:55:00,71.7,71.0,30.03,North,354,0.0,0.0,98,0.00,,,0.04,Rainwise IP-100,2013-10-17 02:55:00,
2013-10-16 23:00:00,71.6,71.0,30.03,North,354,0.0,1.0,98,0.00,,,0.04,Rainwise IP-100,2013-10-17 03:00:00,
2013-10-16 23:05:00,71.5,71.0,30.03,North,354,0.0,0.0,98,0.00,,,0.04,Rainwise IP-100,2013-10-17 03:05:00,
2013-10-16 23:10:00,71.0,70.0,30.03,North,354,0.0,0.0,98,0.00,,,0.04,Rainwise IP-100,2013-10-17 03:10:00,
2013-10-16 23:15:00,70.6,70.0,30.03,North,354,0.0,0.0,98,0.00,,,0.04,Rainwise IP-100,2013-10-17 03:15:00,
2013-10-16 23:20:00,70.3,69.0,30.03,North,354,0.0,0.0,98,0.00,,,0.04,Rainwise IP-100,2013-10-17 03:20:00,
2013-10-16 23:25:00,70.3,69.0,30.03,North,354,0.0,0.0,98,0.00,,,0.04,Rainwise IP-100,2013-10-17 03:25:00,
2013-10-16 23:30:00,70.0,69.0,30.03,North,354,0.0,0.0,98,0.00,,,0.04,Rainwise IP-100,2013-10-17 03:30:00,
2013-10-16 23:36:00,69.6,69.0,30.03,North,354,0.0,0.0,98,0.00,,,0.04,Rainwise IP-100,2013-10-17 03:36:00,
2013-10-16 23:41:00,69.5,69.0,30.03,North,354,0.0,0.0,99,0.00,,,0.04,Rainwise IP-100,2013-10-17 03:41:00,
2013-10-16 23:46:00,69.4,69.0,30.03,North,354,0.0,0.0,99,0.00,,,0.04,Rainwise IP-100,2013-10-17 03:46:00,
2013-10-16 23:51:00,69.2,69.0,30.02,North,354,0.0,0.0,99,0.00,,,0.04,Rainwise IP-100,2013-10-17 03:51:00,
2013-10-16 23:56:00,68.7,68.0,30.02,North,354,0.0,0.0,99,0.00,,,0.04,Rainwise IP-100,2013-10-17 03:56:00,